ANIK F1

Last updated on Wed Nov 20 2024 00:02:38 GMT+0000 (Coordinated Universal Time)

1 26624U 00076A 24324.27265920 .00000081 00000+0 00000+0 0 9998 2 26624 3.7031 81.7850 0013844 155.6377 159.4854 0.99449942 37375
UTC large
Height (km)
Speed (km/s)
/
Latitude / Longitude
Inclination (degrees)
Orbital Period (minutes)
Azimuth
Elevation
Range (km)
Doppler Factor

Next 0 passes for location: London (51.5072 / 0.1276)

Sorry there are no passes over London.